Regional Weather Roundup
Issued by NWS Bismarck, ND

Home | Current Version | Previous Version | Text Only | Print | Product List | Glossary On
Versions: 1 2 3 4 5 6 7 8 9 10 11 12 13 14 15 16 17 18 19 20 21 22 23 24 25 26 27 28 29 30 31 32 33 34 35 36 37 38 39 40 41 42 43 44 45 46 47 48 49 50
000
ASUS43 KBIS 261220
RWRBIS

NWR BROADCAST TEXT
NATIONAL WEATHER SERVICE BISMARCK ND
600 AM CST FRI DEC 26 2014

NOTE: "FAIR" INDICATES FEW OR NO CLOUDS BELOW 12,000 FEET WITH NO
SIGNIFICANT WEATHER AND/OR OBSTRUCTIONS TO VISIBILITY.


CITY           SKY/WX    TMP DP  RH WIND       PRES   REMARKS
WILLISTON      LGT SNOW  14  10  84 W10       30.12S FOG     WCI   1
MINOT          CLOUDY     7   3  84 CALM      30.13S
MINOT AFB      CLOUDY     8   5  89 NE6       30.13S WCI  -2
BISMARCK       CLOUDY    16   8  71 NW13      30.13R WCI   2
DICKINSON      CLOUDY    17  11  77 NW6       30.06S WCI   9
GARRISON         N/A     12   8  84 NW8       30.12S WCI   0
HETTINGER ARPT CLOUDY    17  10  74 NW15      30.08R WCI   2
JAMESTOWN      CLOUDY    21  17  84 N10       30.08R WCI  10
BEACH          CLOUDY    18  14  86 CALM      30.07S
CARRINGTON     CLOUDY    16  16 100 MISG      30.11R
CROSBY         CLOUDY     5   5 100 NW7       30.14R WCI  -7
HARVEY         CLOUDY     7   5  92 NW17      30.12R WCI -12
HAZEN          CLOUDY    16  10  79 N8        30.15R WCI   5
LINTON         FLURRIES  21  21 100 N8        30.09R WCI  12
MANDAN         CLOUDY    16  10  79 NW10      30.12R WCI   3
OAKES            N/A     23  23 100 N12       30.07R WCI  12
RUGBY          CLOUDY     5   1  85 NW14      30.13R WCI -12
STANLEY        CLOUDY     9   7  92 NW6       30.09S WCI  -1
TIOGA          FLURRIES  10  10 100 NW12      30.12R WCI  -4
WATFORD CITY   CLOUDY    14  10  85 NW5       30.09S WCI   6
$$

CITY           SKY/WX    TMP DP  RH WIND       PRES   REMARKS
GRAND FORKS    CLOUDY    24  18  77 N8        30.10R WCI  15
GRAND FORKS AF CLOUDY    24  19  83 N9        30.11R WCI  14
DEVILS LAKE    CLOUDY    19  16  86 N10       30.09R WCI   8
FARGO          CLOUDY    24  20  84 N16       30.07S WCI  11
CANDO          CLOUDY    16  14  93 N13       30.11R WCI   2
CAVALIER       CLOUDY    23  19  86 NW7       30.11R WCI  15
GWINNER        CLOUDY    27  27 100 N12       30.08R WCI  16
LANGDON        CLOUDY    18  14  86 NW9       30.07R WCI   6
ROLLA          FAIR       1   0  92 N13       30.10R WCI -16
WALHALLA         N/A     19  19 100 NW9       30.11R WCI   9
$$

CITY           SKY/WX    TMP DP  RH WIND       PRES   REMARKS
ABERDEEN       CLOUDY    25  20  81 N15       30.08R WCI  13
MOBRIDGE       CLOUDY    24  20  84 N7        30.07R WCI  16
BUFFALO          N/A     19  14  81 N12       29.98R WCI   7
RAPID CITY     CLOUDY    20  16  84 N9        30.05R WCI   9
GLASGOW        CLOUDY    18  13  80 E12       30.04S WCI   5
SIDNEY         CLOUDY    12   9  85 CALM      30.14R
WOLF POINT     CLOUDY    12   9  87 E6        30.10S WCI   3
GLENDIVE       CLOUDY    18  12  79 CALM      30.08S
MILES CITY     CLOUDY    22  19  89 SE7       30.06S WCI  13
BAKER          CLOUDY    19  14  81 NW6       30.06S WCI  11
$$

CITY           SKY/WX    TMP DP  RH WIND       PRES   REMARKS
BILLINGS       PTCLDY    10   7  87 SW15      30.01S WCI  -7
GREAT FALLS    CLOUDY    21  15  78 W9        29.98R WCI  11
REGINA         CLOUDY     1  -2  85 N5        30.13  WCI  -8
ESTEVAN        FLURRIES   0  -4  85 NW12      30.12R WCI -18
$$



USA.gov is the U.S. government's official web portal to all federal, state and local government web resources and services.